Powrót do katalogu

ATLAS AGENA R/B

AktywnyMEO
NORAD 6318·ROCKET BODY·🇺🇸 United States

Wystrzelony Dec 20, 1972 z Cape Canaveral Space Force Station

Loading…

Następne Przeloty (najbliższe 24 godziny)

TLE

ŚwieżeSource: Space-Track

Epoka: Sep 13, 2026, 22:59 UTC

1 06318U 72101B   26256.95784790 -.00000211  00000-0  00000-0 0  9994
2 06318   8.4675 219.4621 1256804 192.4988 163.9292  1.02316640 28232

Śledź ATLAS AGENA R/B w czasie rzeczywistym z AllMySat

Download on the App Store